Weather History for Newburgh, NY

Change the Weather History Date:

Saturday, January 5, 2013

  Actual Average Record
Temperature  
Mean Temperature 31 °F -  
Max Temperature 39 °F 34 °F 60 °F (2007)
Min Temperature 23 °F 20 °F -10 °F (1981)
Degree Days  
Heating Degree Days 34    
Moisture  
Dew Point 22 °F    
Average Humidity 67    
Maximum Humidity 86    
Minimum Humidity 52    
Precipitation  
Precipitation 0.00 in - - ()
Sea Level Pressure  
Sea Level Pressure 30.17 in    
Wind  
Wind Speed 13 mph (WNW)    
Max Wind Speed 17 mph    
Max Gust Speed 25 mph    
Visibility 16 miles    
Events      
Averages and records for this station are not official NWS values.
T = Trace of Precipitation, MM = Missing Value Source: NWS Daily Summary

Daily Weather History Graph

Daily Weather History Graph

Search for Another Location

Airport:

Trip Planner

Search our weather history database for the weather conditions in past years. The results will help you decide how hot, cold, wet, or windy it might be!

Date:

Astronomy

Jan. 05, 2013 Rise Set
Actual Time 7:22 AM EST 4:41 PM EST
Civil Twilight 6:51 AM EST 5:12 PM EST
Nautical Twilight 6:17 AM EST 5:46 PM EST
Astronomical Twilight 5:43 AM EST 6:20 PM EST
Moon 12:23 AM EST (1/5) 11:31 AM EST (1/5)
Length of Visible Light 10h 20m
Length of Day
9h 18m
Last Quarter, 44% of the Moon is Illuminated
Jan 5
Last Quarter
Jan 11
New
Jan 18
First Quarter
Jan 26
Full
Feb 3
Last Quarter

Hourly Weather History & Observations

Time (EST) Temp. Windchill Dew Point Humidity Pressure Visibility Wind Dir Wind Speed Gust Speed Precip Events Conditions
1:45 AM 32.0 °F 20.8 °F 19.4 °F 60% 30.01 in 20.0 mi WNW 17.3 mph - N/A   Overcast
2:45 AM 32.0 °F 20.8 °F 21.2 °F 64% 30.02 in 15.0 mi WNW 17.3 mph - N/A   Overcast
3:45 AM 32.0 °F 20.8 °F 21.2 °F 64% 30.03 in 15.0 mi WNW 17.3 mph - N/A   Overcast
4:45 AM 32.0 °F 21.2 °F 23.0 °F 69% 30.05 in 10.0 mi WNW 16.1 mph - N/A   Overcast
5:45 AM 32.0 °F 22.1 °F 24.8 °F 75% 30.08 in 10.0 mi WNW 13.8 mph - N/A   Mostly Cloudy
6:50 AM 32.0 °F 22.1 °F 23.0 °F 69% 30.13 in 20.0 mi WNW 13.8 mph 25.3 mph N/A   Mostly Cloudy
7:45 AM 32.0 °F 23.0 °F 23.0 °F 69% 30.16 in 20.0 mi West 11.5 mph - N/A   Mostly Cloudy
8:45 AM 33.8 °F 23.2 °F 23.0 °F 65% 30.19 in 20.0 mi WNW 17.3 mph - N/A   Mostly Cloudy
9:45 AM 35.6 °F 25.5 °F 23.0 °F 60% 30.22 in 20.0 mi WNW 17.3 mph - N/A   Mostly Cloudy
10:45 AM 35.6 °F 25.5 °F 23.0 °F 60% 30.25 in 20.0 mi WNW 17.3 mph - N/A   Mostly Cloudy
11:45 AM 37.4 °F 29.8 °F 23.0 °F 56% 30.24 in 20.0 mi NW 11.5 mph - N/A   Mostly Cloudy
12:45 PM 37.4 °F 27.8 °F 23.0 °F 56% 30.21 in 20.0 mi NW 17.3 mph - N/A   Mostly Cloudy
1:45 PM 39.2 °F 32.5 °F 23.0 °F 52% 30.20 in 20.0 mi NW 10.4 mph 18.4 mph N/A   Scattered Clouds
2:45 PM 39.2 °F 32.0 °F 23.0 °F 52% 30.22 in 20.0 mi NW 11.5 mph - N/A   Scattered Clouds
4:45 PM 35.6 °F 30.7 °F 23.0 °F 60% 30.22 in 10.0 mi WNW 5.8 mph - N/A   Scattered Clouds
5:45 PM 33.8 °F 28.6 °F 21.2 °F 60% 30.24 in 10.0 mi WNW 5.8 mph - N/A   Partly Cloudy
6:45 PM 28.4 °F - 21.2 °F 74% 30.24 in 10.0 mi Calm Calm - N/A   Clear
7:45 PM 26.6 °F - 21.2 °F 80% 30.24 in 10.0 mi Calm Calm - N/A   Clear
8:45 PM 23.0 °F - 19.4 °F 86% 30.24 in 10.0 mi Calm Calm - N/A   Partly Cloudy
10:45 PM 24.8 °F - 21.2 °F 86% 30.22 in 10.0 mi Calm Calm - N/A   Partly Cloudy
10:50 PM 23.0 °F 15.8 °F 19.4 °F 86% 30.20 in 20.0 mi NNW 5.8 mph - N/A   Mostly Cloudy